Weather in Ilinka

Ukraine / Odesa District     46°41′00″N   30°38′18″E
temp.,
°C
wind,
m/s
gust,
m/s
humid.,
%
clouds,
%
prec.,
mm/h
press.,
hPa
HPBL,
m
22 october, fri
fri2200:00+13ssw715810 0.0 1013427
03:00+11sw511781 0.0 1012248
06:00+10sw34735 0.0 101355
09:00+13w245528 0.0 1014117
12:00+19wsw3436100 0.0 1015558
15:00+21wsw3437100 0.0 10141030
18:00+18s2250100 0.0 101412
21:00+16ssw4756100 0.0 1015113
23 october, sat
sat2300:00+15wsw4662100 0.0 1015101
03:00+15nw4757100 0.0 1015127
06:00+14nnw4949100 0.0 1016235
09:00+14n3651100 0.0 1017194
12:00+15nnw3650100 0.0 1019477
15:00+14nnw5650100 0.0 1019761
18:00+13nnw3549100 0.0 1020218
21:00+11nnw33524 0.0 102235
24 october, sun
sun2400:00+9nnw374489 0.0 1023135
03:00+9nnw4742100 0.0 1024132
06:00+7nw494983 0.0 1024201
09:00+8nw59538 0.0 1027413
12:00+11nnw79475 0.0 10271158
15:00+12nw810385 0.0 10261737
18:00+9nnw8124533 0.0 1027743
21:00+6nnw711625 0.0 1030701
25 october, mon
mon2500:00+5nw486057 0.0 1031250
03:00+4nw48596 0.0 1031204
06:00+3nnw366574 0.0 1032128
09:00+5n36565 0.0 1034272
12:00+8n44425 0.0 10341190
15:00+10nne34340 0.0 10331357
18:00+7ne33410 0.0 103386
21:00+6e33470 0.0 103454
26 october, tue
tue2600:00+4e33500 0.0 103441
03:00+3e33521 0.0 103450
06:00+3e34580 0.0 103365
09:00+5e47561 0.0 1033210
12:00+10se56400 0.0 1032914
15:00+10se44421 0.0 1030890
18:00+7se34584 0.0 102997
21:00+6ese33625 0.0 102961